HULIANWANG DIGUI-119

导读 | 豆包AI

HULIANWANG DIGUI-119是中国于2025年12月11日发射的低轨道卫星,名称中“HULIANWANG”指向互联网星座范畴,“DIGUI”对应“地瓜”,结合“119”编号,推测隶属于我国民营低轨互联网星座工程,主要承担互联网通信覆盖服务,将为全球用户提供宽带网络接入,也可兼顾灾害监测、应急通信等应用场景,助力构建全球化卫星互联网络,推动天地一体化信息基础设施建设。

Basic Information
目录编号:
67059
目录名称:
HULIANWANG DIGUI-119
国际标识:
2025-295A
轨道中心:
EARTH
卫星名称:
HULIANWANG DIGUI-119
卫星全名:
HULIANWANG DIGUI-119
卫星状态:
在轨 (已飞行114 天)
发射日期:
2025-12-11 UTC
国别 :
中国 (CN)
星等 :
--
Orbit Information
数据来源 国际轨道数据 AOE轨道数据
星历时间 2026-04-04T03:17:55+0800
6小时前
查看轨道信息
2026-03-28T16:00:00+0800
6天前
查看轨道信息
半长轴 7527.454km 7527.458km
偏心率 0.0000194 0.0000116
轨道倾角 50.004° 50.004°
近地点辐角 153.082° 186.491°
升交点赤经 292.565° 315.773°
平近点角 207.006° 148.091°
近地点 1149.17km 1149.233km
远地点 1149.464km 1149.409km
周期 108.326分钟 108.326分钟
每日圈数 13.293235 13.293224
Detailed Information
使用方式:
暂无
2D Orbit Map
3D Orbit Map
Orbit Altitude Analysis Chart
Orbit Inclination Analysis Chart
Orbit Comprehensive Analysis Chart
View Comprehensive Chart